This is the latest recevied weather packets stored in our database for station/object DL0GY-13. If no packets are shown the sender has not sent any weather packets the latest 10 day(s).
| Time | Temp. | Humidity | Pressure | Rain* | Wind** | Luminosity | Snow |
|---|---|---|---|---|---|---|---|
| 1777662634 | 19.44° C | 34% | 1020.8 hPa | 0 mm | - | - | - |
| 1777662033 | 20° C | 33% | 1020.7 hPa | 0 mm | - | - | - |
| 1777661433 | 20.56° C | 32% | 1020.7 hPa | 0 mm | - | - | - |
| 1777660833 | 20.56° C | 32% | 1020.7 hPa | 0 mm | - | - | - |
| 1777660233 | 21.11° C | 32% | 1020.8 hPa | 0 mm | - | - | - |
| 1777659633 | 21.11° C | 32% | 1020.6 hPa | 0 mm | - | - | - |
| 1777659033 | 21.67° C | 31% | 1020.7 hPa | 0 mm | - | - | - |
| 1777658433 | 21.67° C | 30% | 1020.5 hPa | 0 mm | - | - | - |
| 1777657833 | 21.67° C | 30% | 1020.6 hPa | 0 mm | - | - | - |
| 1777657234 | 22.22° C | 29% | 1020.4 hPa | 0 mm | - | - | - |
| 1777656634 | 22.22° C | 29% | 1020.5 hPa | 0 mm | - | - | - |
| 1777656033 | 22.22° C | 29% | 1020.5 hPa | 0 mm | - | - | - |
| 1777655433 | 22.78° C | 29% | 1020.4 hPa | 0 mm | - | - | - |
| 1777654833 | 22.78° C | 28% | 1020.6 hPa | 0 mm | - | - | - |
| 1777654234 | 22.78° C | 28% | 1020.5 hPa | 0 mm | - | - | - |
| 1777653634 | 22.78° C | 28% | 1020.4 hPa | 0 mm | - | - | - |
| 1777653033 | 23.33° C | 28% | 1020.5 hPa | 0 mm | - | - | - |
| 1777652434 | 23.33° C | 27% | 1020.6 hPa | 0 mm | - | - | - |
| 1777651833 | 23.33° C | 26% | 1020.8 hPa | 0 mm | - | - | - |
| 1777651234 | 23.89° C | 26% | 1020.9 hPa | 0 mm | - | - | - |
| 1777650634 | 23.89° C | 26% | 1021 hPa | 0 mm | - | - | - |
| 1777650034 | 23.89° C | 26% | 1021 hPa | 0 mm | - | - | - |
| 1777649434 | 24.44° C | 25% | 1021 hPa | 0 mm | - | - | - |
| 1777648834 | 23.89° C | 26% | 1021.1 hPa | 0 mm | - | - | - |
| 1777648233 | 23.89° C | 27% | 1021.3 hPa | 0 mm | - | - | - |
* Rain latest hour (hover to see other rain measurements)
** Current wind speed in m/s (hover to see current wind gust speed)